Tracking 18840 objects as of 18-November-2017
HD Live streaming from Space Station
objects crossing your sky now

FENGYUN 1C DEB

Track FENGYUN 1C DEB now!
10-day predictions


NORAD ID: 29998
Int'l Code: 1999-025LY
Perigee: 832.4 km
Apogee: 842.4 km
Inclination: 99.3 °
Period: 101.5 minutes
Semi major axis: 7208 km
RCS: 0.0965 m2 (small)
Launch date: May 10, 1999
Source: People's Republic of China (PRC)
Launch site: Taiyaun Space Center, China (TSC)

Note: This is SATELLITE DEBRIS
aabbcc
Your satellite tracking list
Your tracking list is empty




NASA's NSSDC Master Catalog

Two Line Element Set (TLE):
1 29998U 99025LY  17321.55687834 +.00000460 +00000-0 +24580-3 0  9994
2 29998 099.3367 179.4117 0006907 021.2832 338.8627 14.18555933560086
Source of the keplerian elements: AFSPC